SL-14 DEB, 45275

Orbit data source: Space-Track

SL-14 DEB, 45275 is space debris in LEO originally from a launch on Thu, 15 Aug 1991 UTC launched from the Plesetsk Missile And Space Complex (PKMTR). Debris objects in space refer to the collection of defunct objects orbiting the Earth. Examples of debris include non-operational satellites, rocket bodies, and fragments generated from explosions, collisions, or faulty payload assembly.

Loading next visibility...
Identifier
45275, 1991-056M
Orbit
LEO
Country
Flag of CISCIS
Related business
Manufacturer
Unknown
Mission
Spacecraft
Bus & Motor
Unknown
Mass
Unknown
Launch date (UTC)
1991-08-15 (35 years ago)
Launch vehicle
Unknown
Launch site
Plesetsk Missile And Space Complex (PKMTR)
Object type
Payload
Rocket body
Debris
Shape & HBR
Unknown shape, 0.2 m
Radar Cross Section
Medium (>0.1 m² and <1 m²)

Expand to show TLE details & history
Last TLE update: 18 hours ago

TLE from 18 hours ago
0 SL-14 DEB
1 45275U 91056M   26167.60016810  .00000060  00000-0  11385-3 0  9995
2 45275  82.5846 131.4824 0028459 328.2063  31.7343 13.22371731305822
Epoch: 2026-06-16T14:24Z
TLE epoch observation values (Epoch: 2026-06-16T14:24:14.523Z)
Latitude
-0.00006°
Longitude
10.552°
Altitude
1,160.22 km
Speed
7.282 km/s
True Right ascension
08h 45m 55s
True Declination
0° 00' 00"
Sunlit
Object was in daylight at epoch
Visualization orbit readout
Latitude
Unknown
Longitude
Unknown
Altitude
Unknown
Speed
Unknown
Apparent Right ascension
Unknown
Apparent Declination
Unknown
Sunlit
N/A
Visualization observer readout
Local Sidereal Time
19:20:24
Azimuth
Unknown
Elevation
Unknown
Doppler factor
Unknown
Orbital elements
Apogee altitude
1,194.4 km
Perigee altitude
1,151.421 km
Semi-major axis
7,551.047 km
Eccentricity
0.00285
Inclination
82.5846°
RAAN
131.4824°
Arg. of periapsis
328.2063°
True anomaly
31.90635°
Mean anomaly
31.7343°
Eccentric anomaly
31.82027°
Mean motion
3.30775 °/min
Orbital period
108.84 mins
BSTAR
0.00011385
Loading maneuver chart data...
Computing Atmospheric mass density...
Loading historical data...
Loading historical data...
Loading historical data...
Loading historical data...
Loading historical data...
Loading historical data...
Loading historical data...

Documentation

Showing up to 5 results
|